Location: Holyhead Bay
(53.3667°N, 4.6667°W)
Time: 14:45:46
(UTC+00:00)

Cosmos 2369 Rocket - Visible Passes

Search period start: 20 April 2021 00:00
Search period end: 30 April 2021 00:00
Orbit: 829 x 852 km, 71.0° (Epoch: 19 April)

Date Brightness Start Highest point End Pass type
(mag) Time Alt. Az. Time Alt. Az. Time Alt. Az.
20 Apr 3.3 03:51:04 10° S 03:56:16 42° ESE 04:01:31 10° NE visible
21 Apr 3.3 03:35:45 10° S 03:40:54 40° ESE 03:46:07 10° NE visible
22 Apr 3.4 03:20:27 10° S 03:25:33 38° ESE 03:30:42 10° NE visible
23 Apr 3.4 03:05:09 10° S 03:10:11 36° ESE 03:15:17 10° NE visible
24 Apr 3.4 02:50:05 11° S 02:54:50 34° ESE 02:59:52 10° NE visible
25 Apr 3.5 02:35:14 13° SSE 02:39:29 33° ESE 02:44:27 10° NE visible
26 Apr 3.5 02:20:21 15° SSE 02:24:08 31° ESE 02:29:02 10° NE visible
26 Apr 2.5 04:02:21 10° SW 04:07:53 59° NW 04:13:28 10° NNE visible
27 Apr 3.5 02:05:24 17° SSE 02:08:47 30° ESE 02:13:36 10° NE visible
27 Apr 2.4 03:47:12 11° SW 03:52:29 62° NW 03:58:06 10° NNE visible
28 Apr 3.6 01:50:26 18° SSE 01:53:26 29° ESE 01:58:11 10° NE visible
28 Apr 2.4 03:32:13 14° SW 03:37:06 64° NW 03:42:44 10° NNE visible
29 Apr 3.6 01:35:25 19° SE 01:38:05 27° ESE 01:42:45 10° NE visible
29 Apr 2.3 03:17:12 16° SW 03:21:42 67° NW 03:27:21 10° NNE visible
